Location: Saint-Restitut
(44.3351°N, 4.7915°E)
Time: 11:19:58
(UTC+00:00)

Daily predictions for brighter satellites

Satellite Brightness Start Highest point End
(mag) Time Altitude Azimuth Time Altitude Azimuth Time Altitude Azimuth
Cosmos 2263 Rocket 2.7 17:12:55 10° NNW 17:18:27 67° WSW 17:23:57 10° SSE
Cosmos 407 Rocket 3.5 17:14:23 10° SSW 17:19:33 87° ESE 17:24:42 10° NNE
BREEZE-M DEB (TANK) 2.5 17:17:23 10° W 17:20:17 73° N 17:26:02 10° E
ATLAS CENTAUR R/B 2.8 17:16:39 10° WSW 17:21:07 41° NW 17:25:27 10° NNE
Cosmos 1544 Rocket 4.4 17:23:38 10° NNW 17:27:52 56° W 17:32:06 10° S
Cosmos 1140 Rocket 3.9 17:23:07 10° SSW 17:28:16 67° WNW 17:33:25 10° NNE
Cosmos 1726 Rocket 4.5 17:26:38 10° NNE 17:30:17 26° ENE 17:33:56 10° SE
ISS -3.6 17:30:05 10° WNW 17:33:27 75° SW 17:36:48 10° SE
Cosmos 1655 Rocket 4.1 17:28:37 10° N 17:34:55 88° W 17:41:08 10° S
DMSP B5D2-2 4.1 17:30:18 10° NNE 17:35:38 80° ESE 17:40:52 10° S
Cosmos 1190 Rocket 4.0 17:34:10 10° SSW 17:39:28 83° ESE 17:44:47 10° NNE
Meteor PRIRODA 4.1 17:36:06 10° S 17:39:36 61° W 17:43:08 10° NNW
SL-08 ROCKET BODY 4.3 17:33:50 10° N 17:39:40 63° E 17:45:27 10° SSE
Cosmos 1633 3.5 17:39:22 10° SE 17:42:06 23° E 17:44:50 10° NE
Cosmos 1461 3.4 17:38:42 10° S 17:42:42 44° ESE 17:46:55 10° NE
Cosmos 1408 2.6 17:40:26 10° SSW 17:43:49 76° W 17:47:16 10° N
Okean O Rocket 3.0 17:41:03 10° ESE 17:44:02 18° ENE 17:47:01 10° NNE
Cosmos 1328 4.2 17:44:06 10° SSW 17:48:03 68° W 17:52:00 10° N
Cosmos 1844 Rocket 2.9 17:43:33 10° NNW 17:48:57 48° ENE 17:54:18 10° SE
Meteor 1-11 4.3 17:47:08 10° S 17:52:52 65° E 17:58:36 10° NNE
CZ-4B DEB 4.2 17:47:39 10° SSE 17:53:02 67° ENE 17:58:28 10° N
Lacrosse 5 rocket 2.2 17:51:09 10° NNW 17:54:10 25° NNE 17:55:53 18° ENE
CZ-4B R/B 3.6 17:50:40 10° SE 17:55:33 37° ENE 18:00:31 10° N
Cosmos 1553 Rocket 4.2 17:54:58 10° SSE 18:00:42 45° E 18:06:31 10° NNE
SKYMED 2 3.7 17:58:45 10° N 18:03:07 79° WNW 18:07:27 10° SSW
CZ-4 R/B 2.3 18:00:58 10° SE 18:04:29 28° ENE 18:07:58 10° N
Cosmos 1844 3.8 17:59:17 10° NNW 18:05:00 55° ENE 18:10:39 10° SE
Cosmos 1892 2.9 18:01:58 10° SSW 18:05:40 69° W 18:09:25 10° N
SKYMED 3 4.3 18:01:55 10° NNE 18:06:04 77° ESE 18:10:12 10° S
Cosmos 468 Rocket 3.9 18:02:38 10° NNW 18:07:49 73° ENE 18:12:56 10° SSE
Cosmos 2058 Rocket 3.5 18:03:47 10° N 18:07:53 37° ENE 18:11:58 10° SE
Cosmos 44 Rocket 4.2 18:05:09 10° SSE 18:09:00 26° ESE 18:10:24 22° E
Cosmos 2360 Rocket 2.2 18:04:16 10° S 18:09:46 60° ESE 18:15:22 10° NNE
Cosmos 2219 Rocket 3.1 18:05:26 10° SSE 18:10:02 27° ESE 18:12:21 20° ENE
CZ-4C R/B 3.3 18:06:48 10° N 18:10:37 75° WNW 18:14:13 10° SSW
YAOGAN 1 2.6 18:07:01 10° SSE 18:11:12 54° ENE 18:15:25 10° N
Cosmos 1825 2.0 18:11:56 10° S 18:15:37 87° W 18:19:20 10° N
Atlas Centaur 2 4.5 18:10:29 10° SSW 18:16:32 23° SSE 18:21:46 13° ESE
Cosmos 1954 Rocket 4.3 18:11:49 10° SSW 18:17:03 70° WNW 18:22:17 10° NNE
RESURS DK-1 2.4 18:13:27 10° NNW 18:17:30 53° ENE 18:20:31 17° SE
Cosmos 2333 Rocket 2.5 18:12:43 10° S 18:18:04 46° ESE 18:22:21 16° NE
Cosmos 2278 Rocket 3.9 18:16:48 10° N 18:19:41 14° NE 18:19:41 14° NE
IGS 5A 4.5 18:20:50 26° NE 18:20:50 26° NE 18:23:42 10° N
MOS 1-B 4.3 18:15:38 10° SSE 18:21:21 67° ENE 18:27:08 10° N
Cosmos 2322 Rocket 2.3 18:16:24 10° SSW 18:22:00 77° WNW 18:27:38 10° NNE
USA 215 4.0 18:16:28 10° SSE 18:22:48 52° SW 18:29:11 10° WNW
Cosmos 1763 Rocket 3.9 18:19:56 10° NNW 18:25:03 64° WSW 18:30:05 10° S
Meteor 2-12 Rocket 4.4 18:20:39 10° N 18:26:45 88° E 18:32:49 10° S
Cosmos 1850 Rocket 4.1 18:23:49 10° S 18:28:49 52° ESE 18:32:18 19° NE
BlueWalker 3 3.6 18:29:14 10° NW 18:32:19 22° N 18:33:03 21° NNE
Lacrosse 5 2.4 18:27:39 10° WSW 18:32:41 57° NW 18:35:50 22° NE
SL-4 R/B 3.0 18:29:35 10° NW 18:32:41 27° N 18:33:04 26° NNE
ATLAS 2AS CENTAUR R/B 3.1 18:26:15 10° NW 18:33:07 65° WSW 18:39:37 10° SSE
COSMOS 2428 3.8 18:28:47 10° SSE 18:32:20 24° ESE 18:32:20 24° ESE
S3M 4.1 18:29:44 10° SSE 18:35:52 52° E 18:42:02 10° NNE
IRIDIUM 104 4.2 18:30:52 10° N 18:36:07 83° E 18:41:21 10° S
Feng Yun 1-1 Rocket 4.3 18:30:43 10° SE 18:36:08 54° ENE 18:41:27 10° N
Cosmos 1741 Rocket 4.0 18:31:28 10° S 18:36:40 58° ESE 18:40:09 21° NNE
SL-16 R/B 3.3 18:31:24 10° SW 18:36:46 43° WNW 18:42:11 10° NNE
Cosmos 841 Rocket 3.4 18:32:30 10° NNW 18:37:46 64° ENE 18:42:08 15° SSE
Cosmos 540 Rocket 3.6 18:34:02 10° NNW 18:39:11 76° WSW 18:44:17 10° SSE
Cosmos 2333 4.1 18:33:41 10° SSW 18:39:13 65° ESE 18:42:55 22° NE
Cosmos 1340 2.4 18:35:52 10° N 18:39:32 75° ENE 18:41:59 20° SSE
IRIDIUM 114 4.3 18:40:00 10° N 18:45:15 82° W 18:50:27 10° S
Cosmos 1892 Rocket 4.1 18:42:28 10° SSW 18:46:50 58° W 18:51:11 10° N
CSL-04 Rocket 4.1 18:47:08 38° ENE 18:47:08 38° ENE 18:51:49 10° N
MINOTAUR 4 R/B 4.3 18:46:22 25° N 18:48:10 65° WNW 18:51:32 10° SSW
Spot 1 3.7 18:51:47 53° NNE 18:52:41 78° ESE 18:56:45 10° S
Cosmos 2315 Rocket 4.2 18:49:21 10° SSE 18:55:17 44° E 19:01:16 10° NNE
Genesis I 3.8 18:55:11 10° SW 18:59:04 54° NW 18:59:51 45° N
Cosmos 1943 Rocket 4.4 18:57:50 10° NNE 18:57:55 10° NNE 18:57:55 10° NNE
Cosmos 2322 3.7 18:54:14 10° S 18:59:47 56° ESE 19:00:25 53° E
ATLAS CENTAUR R/B 4.4 19:00:17 10° NW 19:00:48 10° NNW 19:01:20 10° NNW
ISS -0.6 19:08:47 10° WSW 19:09:38 11° SW 19:10:29 10° SW
Okean O Rocket 2.4 19:15:44 10° S 19:19:58 49° W 19:24:17 10° NNW
Cosmos 1745 Rocket 4.3 19:17:07 10° NNW 19:23:19 66° W 19:29:24 10° S
Lacrosse 5 rocket 3.2 19:29:40 10° WNW 19:31:18 24° WNW 19:31:18 24° WNW
CZ-4 R/B 3.5 19:35:51 10° SSW 19:39:19 26° W 19:42:45 10° NW
Cosmos 1709 Rocket 4.0 19:35:43 10° NNW 19:41:50 74° W 19:43:12 55° SSW
Cosmos 2219 Rocket 3.0 19:48:20 10° SW 19:53:41 47° WNW 19:54:09 46° NW
Cosmos 2360 Rocket 4.2 19:49:38 10° WSW 19:54:12 25° NW 19:57:41 14° N
Cosmos 2333 Rocket 3.8 19:57:34 10° WSW 20:02:31 30° NW 20:04:25 25° NNW
Cosmos 2278 Rocket 3.9 19:59:18 10° NNW 20:01:33 25° NNW 20:01:33 25° NNW
Atlas Centaur 2 4.2 19:58:04 10° SW 20:04:15 30° S 20:04:15 30° S
Lacrosse 5 4.1 20:12:33 10° WNW 20:15:03 20° NW 20:15:03 20° NW
COSMOS 2428 4.3 20:11:44 10° SW 20:14:26 27° WSW 20:14:26 27° WSW
